Location: Newark
(49.8969°N, 3.3422°E)
Time: 20:27:55
(UTC+00:00)

Vanguard 1 Rocket - Pass Details

Date: 27 January 2020
Orbit: 650 x 4226 km, 34.3° (Epoch: 19 February)

Event Time Altitude Azimuth Distance (km) Brightness Sun altitude
Rises 12:17:13 0° 257° (WSW) 4,708 11.3 21.5°
Reaches altitude 10° 12:20:01 10° 250° (WSW) 4,085 11.2 21.4°
Maximum altitude 12:30:35 40° 186° (S) 3,497 12.1 21.2°
Drops below altitude 10° 12:48:53 10° 127° (SE) 6,915 12.3 20.7°
Sets 12:55:34 0° 122° (ESE) 8,264 12.5 20.5°
